This is the latest recevied weather packets stored in our database for station/object KF0WJA. If no packets are shown the sender has not sent any weather packets the latest 10 day(s).
| Time | Temp. | Humidity | Pressure | Rain* | Wind** | Luminosity | Snow |
|---|---|---|---|---|---|---|---|
| 1788021012 | 31.11° C | 49% | 1019.1 hPa | 0 mm | - | 422 W/m² | - |
| 1788020708 | 31.11° C | 50% | 1019 hPa | 0 mm | - | 255 W/m² | - |
| 1788020402 | 31.11° C | 49% | 1019.4 hPa | 0 mm | - | 222 W/m² | - |
| 1788020099 | 31.67° C | 49% | 1019.2 hPa | 0 mm | - | 240 W/m² | - |
| 1788019798 | 31.11° C | 48% | 1019.5 hPa | 0 mm | - | 311 W/m² | - |
| 1788019498 | 31.67° C | 48% | 1019.3 hPa | 0 mm | - | 308 W/m² | - |
| 1788019195 | 31.67° C | 48% | 1019.3 hPa | 0 mm | - | 455 W/m² | - |
| 1788018890 | 31.11° C | 48% | 1019.2 hPa | 0 mm | - | 377 W/m² | - |
| 1788018585 | 31.11° C | 49% | 1019.3 hPa | 0 mm | - | 375 W/m² | - |
| 1788018284 | 31.67° C | 48% | 1019.4 hPa | 0 mm | - | 355 W/m² | - |
| 1788017980 | 31.67° C | 49% | 1019.2 hPa | 0 mm | - | 546 W/m² | - |
| 1788017677 | 31.11° C | 50% | 1019.4 hPa | 0 mm | - | 681 W/m² | - |
| 1788017373 | 30.56° C | 50% | 1019.5 hPa | 0 mm | - | 613 W/m² | - |
| 1788017069 | 28.89° C | 55% | 1019.4 hPa | 0 mm | - | 557 W/m² | - |
| 1788016768 | 27.78° C | 56% | 1019.4 hPa | 0 mm | - | 310 W/m² | - |
| 1788016467 | 27.78° C | 57% | 1019.6 hPa | 0 mm | - | 134 W/m² | - |
| 1788016161 | 27.78° C | 57% | 1019.6 hPa | 0 mm | - | 137 W/m² | - |
| 1788015860 | 28.33° C | 55% | 1019.3 hPa | 0 mm | - | 236 W/m² | - |
| 1788015555 | 27.78° C | 56% | 1019.3 hPa | 0 mm | - | 377 W/m² | - |
| 1788015250 | 26.67° C | 58% | 1019.4 hPa | 0 mm | - | 256 W/m² | - |
| 1788014949 | 26.67° C | 59% | 1019.6 hPa | 0 mm | - | 140 W/m² | - |
| 1788014649 | 26.67° C | 58% | 1019.6 hPa | 0 mm | - | 126 W/m² | - |
| 1788014344 | 26.67° C | 58% | 1019.7 hPa | 0 mm | - | 173 W/m² | - |
| 1788014040 | 26.67° C | 59% | 1019.5 hPa | 0 mm | - | 134 W/m² | - |
| 1788013739 | 26.67° C | 58% | 1019.5 hPa | 0 mm | - | 161 W/m² | - |
* Rain latest hour (hover to see other rain measurements)
** Current wind speed in m/s (hover to see current wind gust speed)